| time (UTC) | temp F | wind direction | speed MPH | gust MPH | rain 1hr in | rain 24hr in | rain mn in | humidity % | barometer mb |
| 20260505125014 | 61 | 143 | 2.0 | 7.0 | 0.00 | 0.04 | 0.00 | 81 | 1009.7 |
| 20260505124532 | 61 | 185 | 2.0 | 6.0 | 0.00 | 0.04 | 0.00 | 81 | 1009.8 |
| 20260505124010 | 61 | 153 | 3.0 | 5.0 | 0.00 | 0.04 | 0.00 | 81 | 1009.9 |
| 20260505123510 | 60 | 168 | 2.0 | 5.0 | 0.00 | 0.04 | 0.00 | 81 | 1010.0 |
| 20260505123030 | 60 | 139 | 1.0 | 4.0 | 0.00 | 0.04 | 0.00 | 81 | 1010.2 |
| 20260505122510 | 60 | 142 | 1.0 | 4.0 | 0.00 | 0.04 | 0.00 | 81 | 1010.3 |
| 20260505122010 | 60 | 111 | 1.0 | 4.0 | 0.00 | 0.04 | 0.00 | 81 | 1010.3 |
| 20260505121531 | 60 | 134 | 1.0 | 3.0 | 0.00 | 0.04 | 0.00 | 80 | 1010.2 |
| 20260505121013 | 60 | 136 | 0.0 | 2.0 | 0.00 | 0.04 | 0.00 | 81 | 1010.2 |
| 20260505120512 | 60 | 91 | 0.0 | 2.0 | 0.00 | 0.04 | 0.00 | 81 | 1010.0 |
| 20260505120038 | 60 | 138 | 0.0 | 3.0 | 0.00 | 0.04 | 0.00 | 81 | 1010.0 |
| 20260505115512 | 60 | 96 | 0.0 | 3.0 | 0.00 | 0.05 | 0.00 | 81 | 1010.1 |
| 20260505115009 | 60 | 110 | 1.0 | 3.0 | 0.00 | 0.05 | 0.00 | 81 | 1009.9 |
| 20260505114530 | 60 | 123 | 0.0 | 2.0 | 0.00 | 0.05 | 0.00 | 81 | 1009.8 |
| 20260505114011 | 60 | 84 | 1.0 | 2.0 | 0.00 | 0.05 | 0.00 | 81 | 1009.8 |
| 20260505113514 | 60 | 72 | 1.0 | 3.0 | 0.00 | 0.05 | 0.00 | 81 | 1009.8 |
| 20260505113030 | 60 | 75 | 1.0 | 3.0 | 0.00 | 0.05 | 0.00 | 81 | 1009.8 |
| 20260505112516 | 60 | 63 | 2.0 | 3.0 | 0.00 | 0.05 | 0.00 | 81 | 1009.9 |
| 20260505112011 | 60 | 86 | 1.0 | 5.0 | 0.00 | 0.05 | 0.00 | 80 | 1009.9 |
| 20260505111532 | 60 | 0 | 1.0 | 5.0 | 0.00 | 0.05 | 0.00 | 80 | 1010.0 |
| 20260505111013 | 60 | 146 | 1.0 | 5.0 | 0.00 | 0.05 | 0.00 | 80 | 1010.0 |
| 20260505110514 | 60 | 66 | 0.0 | 5.0 | 0.00 | 0.05 | 0.00 | 79 | 1010.1 |
| 20260505102015 | 62 | 46 | 5.0 | 12.0 | 0.00 | 0.05 | 0.00 | 74 | 1010.2 |
| 20260505101532 | 63 | 24 | 4.0 | 18.0 | 0.00 | 0.05 | 0.00 | 73 | 1010.1 |
| 20260505101010 | 63 | 328 | 6.0 | 18.0 | 0.00 | 0.05 | 0.00 | 72 | 1010.3 |
| 20260505100516 | 64 | 343 | 10.0 | 18.0 | 0.00 | 0.05 | 0.00 | 70 | 1010.1 |
| 20260505100034 | 64 | 312 | 3.0 | 8.0 | 0.00 | 0.05 | 0.00 | 67 | 1010.0 |
| 20260505095510 | 64 | 316 | 2.0 | 5.0 | 0.00 | 0.09 | 0.00 | 66 | 1010.0 |
| 20260505095012 | 64 | 340 | 3.0 | 6.0 | 0.00 | 0.09 | 0.00 | 66 | 1009.9 |
| 20260505094530 | 64 | 281 | 3.0 | 8.0 | 0.00 | 0.09 | 0.00 | 65 | 1009.5 |
| 20260505094013 | 64 | 285 | 3.0 | 8.0 | 0.00 | 0.09 | 0.00 | 65 | 1009.2 |
| 20260505093510 | 64 | 281 | 3.0 | 8.0 | 0.00 | 0.09 | 0.00 | 65 | 1009.0 |
| 20260505093040 | 64 | 284 | 3.0 | 8.0 | 0.00 | 0.09 | 0.00 | 65 | 1008.7 |
| 20260505092512 | 64 | 153 | 5.0 | 8.0 | 0.00 | 0.09 | 0.00 | 65 | 1008.6 |
| 20260505092011 | 64 | 261 | 3.0 | 9.0 | 0.00 | 0.09 | 0.00 | 65 | 1008.7 |
| 20260505091532 | 64 | 217 | 4.0 | 9.0 | 0.00 | 0.09 | 0.00 | 64 | 1008.7 |
| 20260505091014 | 64 | 260 | 3.0 | 11.0 | 0.00 | 0.09 | 0.00 | 64 | 1008.6 |
| 20260505090512 | 64 | 272 | 4.0 | 11.0 | 0.00 | 0.09 | 0.00 | 64 | 1008.6 |
| 20260505090038 | 64 | 211 | 5.0 | 11.0 | 0.00 | 0.09 | 0.00 | 64 | 1008.5 |
| 20260505085510 | 64 | 270 | 2.0 | 8.0 | 0.00 | 0.17 | 0.00 | 64 | 1008.4 |
| 20260505085016 | 64 | 143 | 3.0 | 8.0 | 0.00 | 0.17 | 0.00 | 64 | 1008.2 |
| 20260505084532 | 64 | 248 | 4.0 | 9.0 | 0.00 | 0.17 | 0.00 | 64 | 1008.2 |
| 20260505084012 | 64 | 167 | 3.0 | 9.0 | 0.00 | 0.17 | 0.00 | 64 | 1008.2 |
| 20260505083513 | 64 | 191 | 3.0 | 10.0 | 0.00 | 0.17 | 0.00 | 64 | 1008.0 |
| 20260505083033 | 64 | 262 | 5.0 | 11.0 | 0.00 | 0.17 | 0.00 | 63 | 1008.1 |
| 20260505082511 | 64 | 209 | 3.0 | 11.0 | 0.00 | 0.17 | 0.00 | 64 | 1008.1 |
| 20260505082010 | 64 | 146 | 5.0 | 11.0 | 0.00 | 0.17 | 0.00 | 63 | 1007.9 |
| 20260505081532 | 65 | 245 | 3.0 | 11.0 | 0.00 | 0.17 | 0.00 | 63 | 1007.9 |
| 20260505081012 | 65 | 242 | 4.0 | 11.0 | 0.00 | 0.17 | 0.00 | 63 | 1007.9 |
| 20260505080510 | 65 | 253 | 4.0 | 9.0 | 0.00 | 0.17 | 0.00 | 63 | 1007.9 |
| 20260505080030 | 65 | 250 | 3.0 | 9.0 | 0.00 | 0.17 | 0.00 | 63 | 1007.8 |
| 20260505075511 | 65 | 255 | 3.0 | 9.0 | 0.00 | 0.17 | 0.00 | 63 | 1007.8 |
| 20260505075012 | 65 | 257 | 4.0 | 12.0 | 0.00 | 0.17 | 0.00 | 62 | 1007.7 |
| 20260505074528 | 65 | 220 | 4.0 | 13.0 | 0.00 | 0.17 | 0.00 | 62 | 1007.9 |
| 20260505074012 | 65 | 172 | 5.0 | 16.0 | 0.00 | 0.17 | 0.00 | 62 | 1007.9 |
| 20260505073511 | 66 | 212 | 7.0 | 16.0 | 0.00 | 0.17 | 0.00 | 61 | 1007.7 |
| 20260505073037 | 66 | 249 | 3.0 | 10.0 | 0.00 | 0.17 | 0.00 | 61 | 1007.7 |
| 20260505072511 | 66 | 302 | 4.0 | 10.0 | 0.00 | 0.17 | 0.00 | 61 | 1007.8 |
| 20260505072012 | 66 | 216 | 5.0 | 12.0 | 0.00 | 0.17 | 0.00 | 61 | 1007.7 |
| 20260505071529 | 66 | 179 | 4.0 | 12.0 | 0.00 | 0.17 | 0.00 | 60 | 1007.7 |
| 20260505071011 | 66 | 235 | 3.0 | 12.0 | 0.00 | 0.17 | 0.00 | 61 | 1007.7 |
| 20260505070512 | 66 | 208 | 5.0 | 12.0 | 0.00 | 0.17 | 0.00 | 60 | 1007.7 |
| 20260505070032 | 67 | 200 | 4.0 | 12.0 | 0.00 | 0.17 | 0.00 | 60 | 1007.6 |
| 20260505065511 | 67 | 209 | 6.0 | 15.0 | 0.00 | 0.17 | 0.00 | 60 | 1007.5 |
| 20260505065013 | 67 | 302 | 6.0 | 16.0 | 0.00 | 0.17 | 0.00 | 59 | 1007.6 |
| 20260505064531 | 67 | 298 | 5.0 | 16.0 | 0.00 | 0.17 | 0.00 | 59 | 1007.5 |
| 20260505064009 | 67 | 161 | 5.0 | 16.0 | 0.00 | 0.17 | 0.00 | 59 | 1007.6 |
| 20260505063510 | 67 | 293 | 6.0 | 15.0 | 0.00 | 0.17 | 0.00 | 59 | 1007.6 |
| 20260505063030 | 67 | 141 | 8.0 | 15.0 | 0.00 | 0.17 | 0.00 | 59 | 1007.5 |
| 20260505062519 | 67 | 248 | 6.0 | 13.0 | 0.00 | 0.17 | 0.00 | 59 | 1007.6 |
| 20260505062012 | 67 | 255 | 6.0 | 13.0 | 0.00 | 0.17 | 0.00 | 59 | 1007.5 |
| 20260505061531 | 67 | 233 | 5.0 | 11.0 | 0.00 | 0.17 | 0.00 | 59 | 1007.5 |
| 20260505061013 | 67 | 193 | 5.0 | 12.0 | 0.00 | 0.17 | 0.00 | 59 | 1007.6 |
| 20260505060510 | 67 | 198 | 4.0 | 15.0 | 0.00 | 0.17 | 0.00 | 59 | 1007.5 |
| 20260505060034 | 67 | 245 | 5.0 | 15.0 | 0.00 | 0.17 | 0.00 | 59 | 1007.4 |
| 20260505055510 | 67 | 212 | 4.0 | 17.0 | 0.00 | 0.17 | 0.00 | 59 | 1007.5 |
| 20260505055013 | 67 | 224 | 6.0 | 17.0 | 0.00 | 0.17 | 0.00 | 59 | 1007.5 |
| 20260505054537 | 67 | 250 | 6.0 | 14.0 | 0.00 | 0.17 | 0.00 | 60 | 1007.5 |
| 20260505054014 | 66 | 183 | 4.0 | 14.0 | 0.00 | 0.17 | 0.00 | 60 | 1007.5 |
| 20260505053513 | 66 | 166 | 5.0 | 14.0 | 0.00 | 0.17 | 0.00 | 60 | 1007.4 |
| 20260505053041 | 66 | 202 | 4.0 | 11.0 | 0.00 | 0.17 | 0.00 | 60 | 1007.5 |
| 20260505052508 | 66 | 177 | 3.0 | 11.0 | 0.00 | 0.17 | 0.00 | 60 | 1007.4 |
| 20260505052015 | 66 | 194 | 4.0 | 11.0 | 0.00 | 0.17 | 0.00 | 60 | 1007.3 |
| 20260505051535 | 66 | 170 | 5.0 | 11.0 | 0.00 | 0.17 | 0.00 | 60 | 1007.3 |
| 20260505051009 | 67 | 213 | 3.0 | 8.0 | 0.00 | 0.17 | 0.00 | 60 | 1007.2 |
| 20260505050513 | 67 | 191 | 2.0 | 8.0 | 0.00 | 0.17 | 0.00 | 60 | 1007.4 |
| 20260505041532 | 69 | 184 | 3.0 | 8.0 | 0.00 | 0.17 | 0.00 | 56 | 1007.8 |
| 20260505041009 | 69 | 179 | 3.0 | 11.0 | 0.00 | 0.17 | 0.00 | 56 | 1007.9 |
| 20260505040509 | 69 | 235 | 4.0 | 14.0 | 0.00 | 0.17 | 0.00 | 55 | 1007.8 |
| 20260505040030 | 69 | 172 | 5.0 | 14.0 | 0.00 | 0.17 | 0.00 | 55 | 1007.8 |
| 20260505035513 | 70 | 278 | 5.0 | 12.0 | 0.00 | 0.17 | 0.17 | 55 | 1007.9 |
| 20260505035009 | 70 | 218 | 5.0 | 13.0 | 0.00 | 0.17 | 0.17 | 55 | 1007.8 |
| 20260505034532 | 70 | 274 | 5.0 | 13.0 | 0.00 | 0.17 | 0.17 | 55 | 1007.9 |
| 20260505034012 | 70 | 271 | 4.0 | 9.0 | 0.00 | 0.17 | 0.17 | 55 | 1008.0 |
| 20260505033514 | 70 | 203 | 4.0 | 10.0 | 0.00 | 0.17 | 0.17 | 55 | 1007.9 |
| 20260505033045 | 70 | 292 | 4.0 | 11.0 | 0.00 | 0.17 | 0.17 | 55 | 1007.8 |
| 20260505032511 | 70 | 197 | 4.0 | 11.0 | 0.00 | 0.17 | 0.17 | 55 | 1007.8 |
| 20260505032011 | 70 | 257 | 4.0 | 10.0 | 0.00 | 0.17 | 0.17 | 55 | 1007.7 |
| 20260505031532 | 70 | 271 | 5.0 | 10.0 | 0.00 | 0.17 | 0.17 | 55 | 1007.5 |
| 20260505031010 | 70 | 165 | 5.0 | 10.0 | 0.00 | 0.17 | 0.17 | 55 | 1007.6 |
| 20260505030510 | 70 | 228 | 5.0 | 11.0 | 0.00 | 0.17 | 0.17 | 55 | 1007.4 |
| 20260505030030 | 70 | 269 | 4.0 | 11.0 | 0.00 | 0.17 | 0.17 | 55 | 1007.3 |
| 20260505025512 | 70 | 226 | 3.0 | 9.0 | 0.00 | 0.17 | 0.17 | 55 | 1007.3 |
| 20260505025010 | 70 | 259 | 5.0 | 10.0 | 0.00 | 0.17 | 0.17 | 55 | 1007.2 |
| 20260505024530 | 70 | 204 | 4.0 | 10.0 | 0.00 | 0.17 | 0.17 | 55 | 1007.2 |
| 20260505024012 | 70 | 243 | 4.0 | 10.0 | 0.00 | 0.17 | 0.17 | 56 | 1007.1 |
| 20260505023509 | 70 | 266 | 3.0 | 8.0 | 0.00 | 0.17 | 0.17 | 55 | 1007.1 |
| 20260505023029 | 70 | 205 | 3.0 | 12.0 | 0.00 | 0.17 | 0.17 | 55 | 1007.1 |
| 20260505022515 | 70 | 217 | 3.0 | 12.0 | 0.00 | 0.17 | 0.17 | 55 | 1007.0 |
| 20260505022012 | 70 | 171 | 3.0 | 10.0 | 0.00 | 0.17 | 0.17 | 55 | 1007.0 |
| 20260505021529 | 70 | 296 | 4.0 | 11.0 | 0.00 | 0.17 | 0.17 | 55 | 1006.8 |
| 20260505021012 | 71 | 224 | 5.0 | 11.0 | 0.00 | 0.17 | 0.17 | 55 | 1006.7 |
| 20260505020512 | 70 | 139 | 4.0 | 11.0 | 0.00 | 0.17 | 0.17 | 56 | 1006.6 |
| 20260505020030 | 70 | 172 | 4.0 | 11.0 | 0.00 | 0.17 | 0.17 | 56 | 1006.6 |
| 20260505015513 | 70 | 238 | 4.0 | 9.0 | 0.00 | 0.17 | 0.17 | 56 | 1006.5 |
| 20260505015014 | 70 | 252 | 3.0 | 9.0 | 0.00 | 0.17 | 0.17 | 57 | 1006.5 |
| 20260505014533 | 70 | 165 | 2.0 | 6.0 | 0.00 | 0.17 | 0.17 | 57 | 1006.2 |
| 20260505014009 | 70 | 175 | 2.0 | 7.0 | 0.00 | 0.17 | 0.17 | 57 | 1006.1 |
| 20260505013511 | 71 | 250 | 2.0 | 7.0 | 0.00 | 0.17 | 0.17 | 56 | 1006.1 |
| 20260505013031 | 71 | 156 | 2.0 | 7.0 | 0.00 | 0.17 | 0.17 | 56 | 1005.9 |
| 20260505012511 | 71 | 261 | 2.0 | 7.0 | 0.00 | 0.17 | 0.17 | 56 | 1005.9 |
| 20260505012010 | 71 | 174 | 2.0 | 8.0 | 0.00 | 0.17 | 0.17 | 55 | 1005.9 |
| 20260505011532 | 72 | 165 | 3.0 | 8.0 | 0.00 | 0.17 | 0.17 | 54 | 1005.7 |
| 20260505011012 | 72 | 160 | 3.0 | 7.0 | 0.00 | 0.17 | 0.17 | 54 | 1005.8 |
| 20260505010510 | 72 | 148 | 3.0 | 12.0 | 0.00 | 0.17 | 0.17 | 53 | 1005.8 |
| 20260505010031 | 72 | 229 | 4.0 | 12.0 | 0.00 | 0.17 | 0.17 | 53 | 1005.9 |
| 20260505005510 | 73 | 147 | 4.0 | 12.0 | 0.00 | 0.17 | 0.17 | 52 | 1005.9 |
| 20260505005010 | 73 | 224 | 3.0 | 13.0 | 0.00 | 0.17 | 0.17 | 52 | 1005.9 |
| 20260505004542 | 73 | 174 | 4.0 | 13.0 | 0.00 | 0.17 | 0.17 | 52 | 1006.0 |
| 20260505004010 | 73 | 153 | 3.0 | 10.0 | 0.00 | 0.17 | 0.17 | 52 | 1005.9 |
| 20260505003515 | 73 | 152 | 3.0 | 12.0 | 0.00 | 0.17 | 0.17 | 51 | 1006.1 |
| 20260505003030 | 74 | 153 | 3.0 | 12.0 | 0.00 | 0.17 | 0.17 | 51 | 1006.1 |
| 20260505002513 | 74 | 262 | 6.0 | 12.0 | 0.00 | 0.17 | 0.17 | 51 | 1006.1 |
| 20260505002014 | 74 | 236 | 3.0 | 9.0 | 0.00 | 0.17 | 0.17 | 51 | 1005.9 |
| 20260505001532 | 74 | 179 | 4.0 | 9.0 | 0.00 | 0.17 | 0.17 | 50 | 1006.1 |
| 20260505001014 | 74 | 167 | 4.0 | 9.0 | 0.00 | 0.17 | 0.17 | 50 | 1006.0 |
| 20260505000510 | 74 | 273 | 3.0 | 10.0 | 0.00 | 0.17 | 0.17 | 50 | 1006.1 |
| 20260505000034 | 75 | 224 | 3.0 | 11.0 | 0.00 | 0.17 | 0.17 | 49 | 1006.1 |
| 20260504235511 | 75 | 175 | 5.0 | 14.0 | 0.00 | 0.17 | 0.17 | 48 | 1006.1 |
| 20260504235013 | 75 | 167 | 4.0 | 14.0 | 0.00 | 0.17 | 0.17 | 49 | 1005.9 |
| 20260504234548 | 75 | 205 | 6.0 | 13.0 | 0.00 | 0.17 | 0.17 | 49 | 1006.1 |
| 20260504234012 | 75 | 154 | 6.0 | 13.0 | 0.00 | 0.17 | 0.17 | 49 | 1006.1 |
| 20260504233511 | 75 | 172 | 6.0 | 13.0 | 0.00 | 0.17 | 0.17 | 49 | 1006.3 |
| 20260504233031 | 75 | 224 | 6.0 | 10.0 | 0.00 | 0.17 | 0.17 | 49 | 1006.3 |
| 20260504232512 | 75 | 259 | 4.0 | 13.0 | 0.00 | 0.17 | 0.17 | 49 | 1006.5 |
| 20260504232013 | 75 | 273 | 5.0 | 13.0 | 0.00 | 0.17 | 0.17 | 48 | 1006.5 |
| 20260504231542 | 76 | 195 | 5.0 | 15.0 | 0.00 | 0.17 | 0.17 | 48 | 1006.7 |
| 20260504231012 | 76 | 244 | 6.0 | 15.0 | 0.00 | 0.17 | 0.17 | 48 | 1006.9 |
| 20260504230513 | 76 | 187 | 6.0 | 14.0 | 0.00 | 0.17 | 0.17 | 48 | 1006.9 |
| 20260504230030 | 76 | 296 | 5.0 | 14.0 | 0.00 | 0.17 | 0.17 | 47 | 1007.0 |
| 20260504225523 | 76 | 244 | 6.0 | 18.0 | 0.00 | 0.17 | 0.17 | 47 | 1007.1 |
| 20260504225011 | 77 | 232 | 8.0 | 22.0 | 0.00 | 0.17 | 0.17 | 46 | 1007.2 |
| 20260504224532 | 77 | 221 | 10.0 | 22.0 | 0.00 | 0.17 | 0.17 | 45 | 1007.3 |
| 20260504224013 | 77 | 302 | 10.0 | 22.0 | 0.00 | 0.17 | 0.17 | 46 | 1007.3 |
| 20260504223511 | 78 | 276 | 7.0 | 15.0 | 0.00 | 0.17 | 0.17 | 46 | 1007.2 |
| 20260504223030 | 78 | 233 | 7.0 | 19.0 | 0.00 | 0.17 | 0.17 | 48 | 1007.3 |
| 20260504222512 | 78 | 338 | 8.0 | 19.0 | 0.00 | 0.17 | 0.17 | 46 | 1007.3 |
| 20260504222014 | 78 | 275 | 7.0 | 15.0 | 0.00 | 0.17 | 0.17 | 47 | 1007.3 |
| 20260504221530 | 78 | 218 | 6.0 | 15.0 | 0.00 | 0.17 | 0.17 | 49 | 1007.4 |
| 20260504221012 | 78 | 272 | 8.0 | 16.0 | 0.00 | 0.17 | 0.17 | 48 | 1007.3 |
| 20260504220514 | 79 | 171 | 7.0 | 16.0 | 0.00 | 0.17 | 0.17 | 48 | 1007.2 |
| 20260504220031 | 79 | 227 | 8.0 | 16.0 | 0.00 | 0.17 | 0.17 | 48 | 1007.4 |
| 20260504215513 | 79 | 219 | 7.0 | 16.0 | 0.00 | 0.17 | 0.17 | 48 | 1007.4 |
| 20260504215017 | 79 | 295 | 8.0 | 16.0 | 0.00 | 0.17 | 0.17 | 48 | 1007.5 |
| 20260504214537 | 79 | 191 | 6.0 | 16.0 | 0.00 | 0.17 | 0.17 | 49 | 1007.4 |
| 20260504214012 | 78 | 261 | 6.0 | 16.0 | 0.00 | 0.17 | 0.17 | 48 | 1007.4 |
| 20260504213514 | 78 | 214 | 6.0 | 16.0 | 0.00 | 0.17 | 0.17 | 48 | 1007.5 |
| 20260504213032 | 78 | 166 | 8.0 | 16.0 | 0.00 | 0.17 | 0.17 | 48 | 1007.5 |
| 20260504212515 | 78 | 170 | 6.0 | 15.0 | 0.00 | 0.17 | 0.17 | 48 | 1007.7 |
| 20260504212014 | 78 | 287 | 6.0 | 14.0 | 0.00 | 0.17 | 0.17 | 49 | 1007.7 |
| 20260504211530 | 77 | 286 | 7.0 | 14.0 | 0.00 | 0.17 | 0.17 | 50 | 1007.8 |
| 20260504211013 | 78 | 253 | 7.0 | 14.0 | 0.00 | 0.17 | 0.17 | 49 | 1007.9 |
| 20260504210518 | 78 | 243 | 3.0 | 19.0 | 0.00 | 0.17 | 0.17 | 50 | 1007.8 |
| 20260504210030 | 78 | 256 | 5.0 | 19.0 | 0.00 | 0.17 | 0.17 | 48 | 1008.1 |
| 20260504205514 | 78 | 176 | 7.0 | 15.0 | 0.00 | 0.17 | 0.17 | 48 | 1007.9 |
| 20260504205015 | 78 | 270 | 9.0 | 25.0 | 0.00 | 0.17 | 0.17 | 48 | 1007.9 |
| 20260504204604 | 78 | 297 | 10.0 | 25.0 | 0.00 | 0.17 | 0.17 | 46 | 1007.8 |
| 20260504204010 | 78 | 352 | 8.0 | 25.0 | 0.00 | 0.17 | 0.17 | 47 | 1007.9 |
| 20260504203513 | 78 | 294 | 9.0 | 25.0 | 0.00 | 0.17 | 0.17 | 48 | 1007.9 |
| 20260504203032 | 78 | 259 | 12.0 | 20.0 | 0.00 | 0.17 | 0.17 | 46 | 1007.8 |
| 20260504202513 | 78 | 211 | 9.0 | 18.0 | 0.00 | 0.17 | 0.17 | 47 | 1007.8 |
| 20260504202014 | 78 | 200 | 9.0 | 17.0 | 0.00 | 0.17 | 0.17 | 47 | 1007.7 |
| 20260504201531 | 78 | 279 | 11.0 | 17.0 | 0.00 | 0.17 | 0.17 | 47 | 1007.8 |
| 20260504201011 | 78 | 278 | 7.0 | 18.0 | 0.00 | 0.17 | 0.17 | 48 | 1007.8 |
| 20260504200512 | 78 | 217 | 8.0 | 19.0 | 0.00 | 0.17 | 0.17 | 47 | 1007.8 |
| 20260504200035 | 77 | 224 | 7.0 | 20.0 | 0.00 | 0.17 | 0.17 | 48 | 1007.9 |
| 20260504195512 | 77 | 281 | 13.0 | 21.0 | 0.00 | 0.17 | 0.17 | 46 | 1008.1 |
| 20260504195013 | 78 | 277 | 12.0 | 21.0 | 0.00 | 0.17 | 0.17 | 47 | 1008.1 |
| 20260504194534 | 77 | 198 | 11.0 | 20.0 | 0.00 | 0.17 | 0.17 | 46 | 1007.9 |
| 20260504194011 | 78 | 259 | 8.0 | 15.0 | 0.00 | 0.17 | 0.17 | 48 | 1008.2 |
| 20260504193514 | 77 | 200 | 8.0 | 15.0 | 0.00 | 0.17 | 0.17 | 47 | 1008.3 |
| 20260504193033 | 78 | 252 | 8.0 | 16.0 | 0.00 | 0.17 | 0.17 | 49 | 1008.3 |
| 20260504192514 | 77 | 173 | 7.0 | 16.0 | 0.00 | 0.17 | 0.17 | 49 | 1008.6 |
| 20260504192014 | 77 | 283 | 8.0 | 14.0 | 0.00 | 0.17 | 0.17 | 48 | 1008.5 |
| 20260504191531 | 77 | 240 | 6.0 | 18.0 | 0.00 | 0.17 | 0.17 | 48 | 1008.6 |
| 20260504191013 | 77 | 250 | 6.0 | 18.0 | 0.00 | 0.17 | 0.17 | 50 | 1008.8 |
| 20260504190513 | 77 | 248 | 10.0 | 18.0 | 0.00 | 0.17 | 0.17 | 49 | 1008.9 |
| 20260504190035 | 77 | 259 | 10.0 | 18.0 | 0.00 | 0.17 | 0.17 | 47 | 1008.9 |
| 20260504185516 | 77 | 188 | 6.0 | 16.0 | 0.00 | 0.17 | 0.17 | 50 | 1009.0 |
| 20260504185012 | 77 | 289 | 6.0 | 14.0 | 0.00 | 0.17 | 0.17 | 52 | 1009.0 |
| 20260504184532 | 77 | 302 | 6.0 | 18.0 | 0.00 | 0.17 | 0.17 | 50 | 1009.2 |
| 20260504184017 | 77 | 281 | 8.0 | 18.0 | 0.00 | 0.17 | 0.17 | 51 | 1009.1 |
| 20260504183514 | 76 | 252 | 6.0 | 18.0 | 0.00 | 0.17 | 0.17 | 51 | 1009.0 |
| 20260504183030 | 76 | 251 | 7.0 | 18.0 | 0.00 | 0.17 | 0.17 | 53 | 1009.1 |
| 20260504182513 | 76 | 285 | 10.0 | 18.0 | 0.00 | 0.17 | 0.17 | 49 | 1009.1 |
| 20260504182013 | 76 | 162 | 5.0 | 15.0 | 0.00 | 0.17 | 0.17 | 52 | 1009.1 |
| 20260504181530 | 76 | 216 | 4.0 | 15.0 | 0.00 | 0.17 | 0.17 | 54 | 1009.1 |
| 20260504181013 | 75 | 149 | 5.0 | 12.0 | 0.00 | 0.17 | 0.17 | 54 | 1009.0 |
| 20260504180514 | 75 | 257 | 6.0 | 13.0 | 0.00 | 0.17 | 0.17 | 55 | 1009.0 |
| 20260504180033 | 74 | 164 | 6.0 | 13.0 | 0.00 | 0.17 | 0.17 | 56 | 1009.0 |
| 20260504175513 | 74 | 287 | 6.0 | 16.0 | 0.00 | 0.17 | 0.17 | 55 | 1009.1 |
| 20260504175011 | 75 | 288 | 6.0 | 16.0 | 0.00 | 0.17 | 0.17 | 54 | 1008.9 |
| 20260504174530 | 75 | 314 | 7.0 | 15.0 | 0.00 | 0.17 | 0.17 | 54 | 1009.0 |
| 20260504174013 | 75 | 165 | 6.0 | 14.0 | 0.00 | 0.17 | 0.17 | 53 | 1009.1 |
| 20260504173513 | 75 | 268 | 7.0 | 14.0 | 0.00 | 0.17 | 0.17 | 54 | 1009.1 |
| 20260504173030 | 75 | 122 | 5.0 | 13.0 | 0.00 | 0.17 | 0.17 | 56 | 1009.2 |
| 20260504172512 | 74 | 215 | 5.0 | 13.0 | 0.00 | 0.17 | 0.17 | 55 | 1009.1 |
| 20260504172015 | 74 | 167 | 7.0 | 14.0 | 0.00 | 0.17 | 0.17 | 55 | 1009.2 |
| 20260504171540 | 73 | 310 | 8.0 | 15.0 | 0.00 | 0.17 | 0.17 | 54 | 1009.2 |
| 20260504171015 | 73 | 228 | 9.0 | 15.0 | 0.00 | 0.17 | 0.17 | 55 | 1009.3 |
| 20260504170513 | 73 | 222 | 6.0 | 14.0 | 0.00 | 0.17 | 0.17 | 57 | 1009.2 |
| 20260504151013 | 64 | 149 | 4.0 | 11.0 | 0.00 | 0.17 | 0.17 | 71 | 1010.4 |
| 20260504150515 | 64 | 153 | 3.0 | 13.0 | 0.00 | 0.17 | 0.17 | 72 | 1010.6 |
| 20260504141012 | 56 | 201 | 8.0 | 14.0 | 0.01 | 0.17 | 0.17 | 78 | 1010.3 |
| 20260504140512 | 56 | 160 | 4.0 | 13.0 | 0.01 | 0.17 | 0.17 | 79 | 1010.3 |
| 20260504130513 | 55 | 146 | 1.0 | 3.0 | 0.03 | 0.16 | 0.16 | 89 | 1010.3 |